GW1008 Weather Reports


Display with metric or nautical units.
time (UTC)temp
F
wind
direction
speed
MPH
gust
MPH
rain 1hr
in
rain 24hr
in
rain mn
in
humidity
%
barometer
mb
20260906183041 62 0 2.0 9.0 0.00 0.18 0.18 76 1007.6
20260906182519 62 0 0.0 11.0 0.00 0.18 0.18 75 1007.6
20260906182016 62 0 0.0 12.0 0.00 0.18 0.18 75 1007.6
20260906181537 62 0 2.0 12.0 0.00 0.18 0.18 75 1007.8
20260906181015 62 0 1.0 8.0 0.00 0.18 0.18 75 1007.9
20260906180515 62 270 1.0 8.0 0.00 0.18 0.18 74 1008.0
20260906180040 63 0 0.0 10.0 0.00 0.18 0.18 74 1008.1
20260906175518 63 0 2.0 10.0 0.00 0.18 0.18 74 1008.0
20260906175020 63 150 1.0 10.0 0.00 0.18 0.18 74 1007.9
20260906174539 63 185 1.0 10.0 0.00 0.18 0.18 74 1008.1
20260906174016 63 0 0.0 11.0 0.00 0.18 0.18 74 1008.2
20260906173515 63 0 1.0 11.0 0.00 0.18 0.18 74 1008.2
20260906173034 63 0 0.0 9.0 0.00 0.18 0.18 74 1008.3
20260906172517 63 227 0.0 10.0 0.00 0.18 0.18 74 1008.2
20260906172015 63 0 1.0 10.0 0.00 0.18 0.18 74 1007.9
20260906171533 63 0 0.0 7.0 0.00 0.18 0.18 74 1008.0
20260906171017 62 269 0.0 12.0 0.00 0.18 0.18 75 1008.1
20260906170523 62 0 1.0 12.0 0.00 0.18 0.18 75 1008.4
20260906170033 62 291 1.0 15.0 0.00 0.18 0.18 74 1008.3
20260906165517 63 0 1.0 15.0 0.00 0.18 0.18 74 1008.5
20260906165021 63 0 0.0 11.0 0.00 0.18 0.18 74 1008.5
20260906164541 63 0 1.0 11.0 0.00 0.18 0.18 74 1008.6
20260906164018 63 0 0.0 9.0 0.00 0.18 0.18 74 1008.9
20260906163518 63 0 1.0 9.0 0.00 0.18 0.18 74 1008.7
20260906163043 63 0 1.0 9.0 0.00 0.18 0.18 74 1008.7
20260906162516 63 0 0.0 9.0 0.00 0.18 0.18 74 1008.6
20260906162019 64 157 0.0 9.0 0.00 0.18 0.18 73 1008.9
20260906161532 64 0 0.0 12.0 0.00 0.18 0.18 73 1009.0
20260906161015 64 238 2.0 15.0 0.00 0.18 0.18 73 1009.1
20260906160517 64 256 3.0 15.0 0.00 0.18 0.18 73 1009.2
20260906160047 64 287 1.0 11.0 0.00 0.18 0.18 73 1009.1
20260906155522 64 268 1.0 11.0 0.00 0.18 0.18 73 1009.0
20260906155015 65 0 0.0 9.0 0.00 0.18 0.18 73 1009.1
20260906154536 65 0 1.0 11.0 0.00 0.18 0.18 74 1009.3
20260906154016 65 244 0.0 11.0 0.00 0.18 0.18 73 1009.3
20260906153515 65 256 1.0 12.0 0.00 0.18 0.18 73 1009.3
20260906153042 65 238 1.0 12.0 0.00 0.18 0.18 73 1009.3
20260906152522 65 0 0.0 13.0 0.00 0.18 0.18 73 1009.2
20260906152020 64 0 1.0 13.0 0.00 0.18 0.18 73 1009.0
20260906151531 64 0 1.0 12.0 0.00 0.18 0.18 73 1009.1
20260906151018 64 0 1.0 9.0 0.00 0.18 0.18 74 1009.2
20260906150517 64 0 0.0 6.0 0.00 0.18 0.18 75 1009.3
20260906145519 64 0 0.0 15.0 0.00 0.18 0.18 74 1009.4
20260906145019 64 238 1.0 10.0 0.00 0.18 0.18 76 1009.4
20260906144543 64 0 0.0 10.0 0.00 0.18 0.18 76 1009.4
20260906144015 63 0 0.0 12.0 0.00 0.18 0.18 76 1009.3
20260906143518 63 0 0.0 12.0 0.00 0.18 0.18 77 1009.3
20260906143037 63 257 1.0 9.0 0.00 0.18 0.18 78 1009.4
20260906142515 63 0 0.0 9.0 0.00 0.18 0.18 78 1009.4
20260906142017 63 0 0.0 13.0 0.00 0.18 0.18 78 1009.3
20260906141542 63 273 1.0 13.0 0.00 0.18 0.18 78 1009.2
20260906141017 63 267 0.0 9.0 0.00 0.18 0.18 79 1009.4
20260906140515 63 298 1.0 18.0 0.00 0.18 0.18 79 1009.5
20260906140039 63 0 1.0 18.0 0.00 0.18 0.18 79 1009.5
20260906135516 63 267 2.0 16.0 0.00 0.18 0.18 79 1009.6
20260906135017 63 0 0.0 14.0 0.00 0.18 0.18 79 1009.6
20260906134535 63 0 0.0 14.0 0.00 0.18 0.18 79 1009.7
20260906134016 62 242 1.0 14.0 0.00 0.18 0.18 79 1009.8
20260906133520 62 0 0.0 11.0 0.00 0.18 0.18 79 1009.8
20260906133034 62 140 1.0 11.0 0.00 0.18 0.18 80 1010.0
20260906132517 62 0 1.0 11.0 0.00 0.18 0.18 79 1010.1
20260906132015 62 0 0.0 5.0 0.00 0.18 0.18 80 1010.0
20260906131531 62 0 0.0 8.0 0.00 0.18 0.18 79 1010.0
20260906131017 62 146 0.0 8.0 0.00 0.18 0.18 80 1010.0
20260906130515 62 0 1.0 8.0 0.00 0.18 0.18 80 1009.9
20260906130043 62 182 0.0 7.0 0.00 0.18 0.18 80 1010.4
20260906125519 62 0 0.0 7.0 0.00 0.18 0.18 80 1010.6
20260906125017 62 0 0.0 9.0 0.00 0.18 0.18 80 1010.6
20260906124536 62 0 1.0 9.0 0.00 0.18 0.18 80 1010.6
20260906124017 62 142 0.0 10.0 0.00 0.18 0.18 80 1010.4
20260906123517 62 0 0.0 10.0 0.00 0.18 0.18 80 1011.0
20260906123034 62 0 1.0 10.0 0.00 0.18 0.18 80 1011.2
20260906122516 61 0 0.0 7.0 0.00 0.18 0.18 80 1011.3
20260906122018 61 0 0.0 9.0 0.00 0.18 0.18 80 1011.4
20260906121531 61 0 0.0 9.0 0.00 0.18 0.18 81 1011.5
20260906121017 61 0 0.0 5.0 0.00 0.18 0.18 81 1011.7
20260906120518 61 0 0.0 5.0 0.00 0.18 0.18 81 1011.7
20260906120041 60 171 0.0 5.0 0.00 0.18 0.18 81 1011.7
20260906115515 60 140 0.0 3.0 0.00 0.18 0.18 81 1011.7
20260906115016 60 0 0.0 8.0 0.00 0.18 0.18 81 1011.6
20260906114538 60 0 1.0 8.0 0.00 0.18 0.18 81 1011.7
20260906114023 60 0 1.0 8.0 0.00 0.18 0.18 81 1011.9
20260906113521 60 0 0.0 7.0 0.00 0.18 0.18 81 1011.9
20260906113034 60 0 0.0 7.0 0.00 0.18 0.18 80 1012.0
20260906112516 60 0 0.0 4.0 0.00 0.18 0.18 80 1012.0
20260906112018 60 0 0.0 1.0 0.00 0.18 0.18 81 1011.9
20260906111534 60 0 0.0 6.0 0.00 0.18 0.18 80 1012.0
20260906111015 60 0 0.0 6.0 0.00 0.18 0.18 80 1011.9
20260906110515 60 195 0.0 4.0 0.00 0.18 0.18 81 1012.1
20260906110040 60 0 0.0 5.0 0.00 0.18 0.18 81 1012.1
20260906105515 60 0 0.0 9.0 0.00 0.18 0.18 81 1012.1
20260906105017 59 0 0.0 10.0 0.00 0.18 0.18 81 1012.1
20260906104533 59 236 1.0 10.0 0.00 0.18 0.18 81 1012.2
20260906104019 59 0 0.0 9.0 0.00 0.18 0.18 81 1012.1
20260906103516 59 0 1.0 9.0 0.00 0.18 0.18 81 1012.3
20260906103033 59 0 0.0 10.0 0.00 0.18 0.18 82 1012.1
20260906102519 58 0 0.0 10.0 0.00 0.18 0.18 81 1012.3
20260906102019 59 0 0.0 8.0 0.00 0.18 0.18 81 1012.4
20260906101533 59 0 1.0 9.0 0.00 0.18 0.18 81 1012.4
20260906101018 59 0 0.0 11.0 0.00 0.18 0.18 81 1012.4
20260906100519 58 0 1.0 11.0 0.00 0.18 0.18 81 1012.3
20260906100032 58 159 0.0 9.0 0.00 0.18 0.18 82 1012.5
20260906095518 58 0 0.0 9.0 0.00 0.18 0.18 82 1012.8
20260906095016 57 0 0.0 5.0 0.00 0.18 0.18 83 1012.8
20260906094549 57 0 0.0 0.0 0.00 0.18 0.18 84 1013.0
20260906094017 57 0 0.0 0.0 0.00 0.18 0.18 84 1013.1
20260906093516 57 0 0.0 0.0 0.00 0.18 0.18 84 1013.2
20260906093037 57 0 0.0 0.0 0.00 0.18 0.18 84 1013.2
20260906092516 56 0 0.0 0.0 0.00 0.18 0.18 84 1013.3
20260906092019 56 0 0.0 0.0 0.00 0.18 0.18 84 1013.4
20260906091540 56 0 0.0 0.0 0.00 0.18 0.18 84 1013.5
20260906091018 56 0 0.0 0.0 0.00 0.18 0.18 84 1013.6
20260906090520 56 0 0.0 0.0 0.00 0.18 0.18 84 1013.7
20260906090033 56 0 0.0 0.0 0.00 0.18 0.18 84 1013.6
20260906085516 56 0 0.0 0.0 0.00 0.18 0.18 83 1013.8
20260906085015 56 0 0.0 0.0 0.00 0.18 0.18 83 1013.9
20260906084538 56 0 0.0 0.0 0.00 0.18 0.18 83 1013.9
20260906084019 56 0 0.0 0.0 0.00 0.18 0.18 83 1013.9
20260906083521 56 0 0.0 2.0 0.00 0.18 0.18 83 1014.0
20260906083036 56 0 0.0 2.0 0.00 0.18 0.18 83 1014.1
20260906082515 56 0 0.0 0.0 0.00 0.18 0.18 83 1014.0
20260906082020 56 0 0.0 3.0 0.00 0.18 0.18 83 1014.1
20260906081544 56 0 0.0 3.0 0.00 0.18 0.18 83 1014.2
20260906081018 56 0 0.0 6.0 0.00 0.18 0.18 83 1014.0
20260906080521 56 0 0.0 6.0 0.00 0.18 0.18 84 1014.1
20260906080033 56 0 0.0 5.0 0.00 0.18 0.18 84 1014.1
20260906075519 56 0 0.0 12.0 0.00 0.18 0.18 83 1014.1
20260906075015 56 0 0.0 12.0 0.00 0.18 0.18 83 1013.9
20260906074533 55 0 0.0 12.0 0.00 0.18 0.18 83 1013.9
20260906074017 55 0 0.0 7.0 0.00 0.18 0.18 83 1014.0
20260906073518 55 0 0.0 7.0 0.00 0.18 0.18 83 1014.2
20260906073033 55 146 0.0 6.0 0.00 0.18 0.18 83 1014.3
20260906072517 55 0 0.0 7.0 0.00 0.18 0.18 84 1014.4
20260906072016 55 184 0.0 7.0 0.00 0.18 0.18 84 1014.4
20260906071534 55 0 0.0 4.0 0.00 0.18 0.18 84 1014.5
20260906071017 55 0 0.0 5.0 0.00 0.18 0.18 84 1014.4
20260906070524 55 221 0.0 5.0 0.00 0.18 0.18 84 1014.5
20260906070033 55 0 0.0 6.0 0.00 0.18 0.18 84 1014.5
20260906065518 55 0 0.0 7.0 0.00 0.18 0.18 84 1014.6
20260906065017 55 0 0.0 10.0 0.01 0.18 0.18 84 1014.5
20260906064532 55 175 0.0 10.0 0.01 0.18 0.18 84 1014.5
20260906064014 55 0 1.0 10.0 0.02 0.18 0.18 84 1014.5
20260906063517 55 0 0.0 9.0 0.02 0.18 0.18 84 1014.5
20260906063033 54 0 0.0 9.0 0.02 0.18 0.18 84 1014.5
20260906062522 54 0 1.0 8.0 0.03 0.18 0.18 84 1014.5
20260906062017 54 248 0.0 8.0 0.03 0.18 0.18 84 1014.5
20260906061539 54 0 0.0 7.0 0.04 0.18 0.18 84 1014.9
20260906061017 54 183 0.0 5.0 0.04 0.18 0.18 85 1014.7
20260906060516 54 0 0.0 5.0 0.05 0.18 0.18 85 1014.6
20260906060033 53 0 0.0 5.0 0.05 0.18 0.18 85 1014.7
20260906055518 53 0 0.0 6.0 0.05 0.18 0.18 85 1015.0
20260906055017 53 0 0.0 6.0 0.04 0.17 0.17 85 1015.0
20260906054536 53 0 0.0 4.0 0.04 0.17 0.17 85 1015.1
20260906054018 53 0 0.0 7.0 0.03 0.16 0.16 85 1015.1
20260906053515 53 0 0.0 7.0 0.03 0.16 0.16 85 1015.2
20260906053031 53 0 0.0 7.0 0.02 0.15 0.15 85 1015.2
20260906052516 53 0 0.0 7.0 0.02 0.15 0.15 85 1015.3
20260906052016 53 0 0.0 3.0 0.02 0.15 0.15 85 1015.5
20260906051533 53 0 0.0 9.0 0.01 0.14 0.14 84 1015.6
20260906051019 53 0 0.0 9.0 0.02 0.14 0.14 84 1015.5
20260906050516 53 169 0.0 4.0 0.01 0.13 0.13 84 1015.5
20260906050033 53 0 0.0 6.0 0.01 0.13 0.13 85 1015.7
20260906045520 52 0 0.0 6.0 0.02 0.13 0.13 85 1015.8
20260906045017 52 0 0.0 6.0 0.02 0.13 0.13 85 1015.9
20260906044540 52 0 0.0 6.0 0.03 0.13 0.13 85 1015.9
20260906044018 52 207 0.0 5.0 0.05 0.13 0.13 85 1016.0
20260906043522 52 0 0.0 5.0 0.08 0.13 0.13 85 1016.1
20260906043042 52 0 1.0 5.0 0.10 0.13 0.13 86 1016.3
20260906042516 52 0 0.0 6.0 0.11 0.13 0.13 86 1016.5
20260906042016 52 0 0.0 6.0 0.11 0.13 0.13 86 1016.5
20260906041537 52 0 0.0 0.0 0.12 0.13 0.13 86 1016.8
20260906041019 52 0 0.0 0.0 0.11 0.12 0.12 86 1016.8
20260906040521 52 0 0.0 0.0 0.12 0.12 0.12 86 1017.0
20260906040036 52 0 0.0 2.0 0.12 0.12 0.12 86 1017.0
20260906035515 52 0 0.0 2.0 0.11 0.11 0.11 86 1017.2
20260906035015 52 0 0.0 2.0 0.11 0.11 0.11 86 1017.2
20260906034536 52 0 0.0 3.0 0.10 0.10 0.10 85 1017.3
20260906034018 52 0 0.0 5.0 0.07 0.07 0.07 85 1017.4
20260906033518 52 0 0.0 5.0 0.05 0.05 0.05 85 1017.4
20260906033034 52 0 0.0 0.0 0.03 0.03 0.03 84 1017.6
20260906032518 52 0 0.0 0.0 0.02 0.02 0.02 84 1017.7
20260906032018 52 0 0.0 0.0 0.02 0.02 0.02 84 1017.6
20260906031544 53 0 0.0 0.0 0.01 0.01 0.01 84 1017.6
20260906031017 53 0 0.0 4.0 0.01 0.01 0.01 84 1017.8
20260906030520 53 0 0.0 4.0 0.00 0.00 0.00 84 1017.7
20260906030033 53 0 0.0 0.0 0.00 0.00 0.00 83 1017.7
20260906025517 53 0 0.0 0.0 0.00 0.00 0.00 83 1018.0
20260906025017 53 0 0.0 2.0 0.00 0.00 0.00 83 1018.2
20260906024535 53 0 0.0 2.0 0.00 0.00 0.00 82 1018.2
20260906024022 53 0 0.0 1.0 0.00 0.00 0.00 82 1018.5
20260906023516 53 0 0.0 1.0 0.00 0.00 0.00 82 1018.7
20260906023032 53 0 0.0 0.0 0.00 0.00 0.00 82 1018.6
20260906022518 53 0 0.0 0.0 0.00 0.00 0.00 81 1018.7
20260906022016 53 0 0.0 0.0 0.00 0.00 0.00 80 1018.8
20260906021534 53 0 0.0 0.0 0.00 0.00 0.00 80 1018.9
20260906021017 53 0 0.0 0.0 0.00 0.00 0.00 80 1018.8
20260906020516 53 0 0.0 1.0 0.00 0.00 0.00 80 1018.8
20260906020049 53 0 0.0 1.0 0.00 0.00 0.00 81 1018.9
20260906015522 52 0 0.0 0.0 0.00 0.00 0.00 81 1018.9
20260906015018 52 0 0.0 0.0 0.00 0.00 0.00 81 1018.8
20260906014537 52 0 0.0 0.0 0.00 0.00 0.00 81 1018.8
20260906014019 52 0 0.0 0.0 0.00 0.00 0.00 81 1018.9
20260906013516 52 0 0.0 0.0 0.00 0.00 0.00 81 1018.9
20260906013033 52 0 0.0 0.0 0.00 0.00 0.00 81 1018.9
20260906012515 52 0 0.0 0.0 0.00 0.00 0.00 80 1018.8
20260906012015 52 0 0.0 0.0 0.00 0.00 0.00 80 1018.8
20260906011534 52 0 0.0 0.0 0.00 0.00 0.00 80 1018.8
20260906011020 52 0 0.0 0.0 0.00 0.00 0.00 80 1018.8
20260906010516 52 0 0.0 0.0 0.00 0.00 0.00 80 1019.1
20260906010033 52 0 0.0 0.0 0.00 0.00 0.00 80 1019.2
20260906005518 52 0 0.0 0.0 0.00 0.00 0.00 80 1019.5
20260906005016 52 0 0.0 0.0 0.00 0.00 0.00 80 1019.6
20260906004531 52 0 0.0 0.0 0.00 0.00 0.00 80 1019.7
20260906004016 52 0 0.0 0.0 0.00 0.00 0.00 81 1019.9
20260906003518 52 0 0.0 1.0 0.00 0.00 0.00 81 1020.0
20260906003033 51 0 0.0 1.0 0.00 0.00 0.00 81 1019.9
20260906002515 51 0 0.0 0.0 0.00 0.00 0.00 82 1019.9
20260906002018 50 0 0.0 0.0 0.00 0.00 0.00 81 1019.9
20260906001534 50 0 0.0 0.0 0.00 0.00 0.00 81 1019.8
20260906001017 50 0 0.0 0.0 0.00 0.00 0.00 81 1019.8
20260906000516 51 0 0.0 0.0 0.00 0.00 0.00 81 1020.0
20260906000032 51 0 0.0 0.0 0.00 0.00 0.00 81 1020.0
20260905235516 51 0 0.0 0.0 0.00 0.00 0.00 81 1020.0
20260905235018 51 0 0.0 0.0 0.00 0.00 0.00 81 1020.1
20260905234531 51 0 0.0 0.0 0.00 0.00 0.00 81 1020.2
20260905234022 51 0 0.0 0.0 0.00 0.00 0.00 81 1020.3
20260905233516 51 0 0.0 0.0 0.00 0.00 0.00 80 1020.4
20260905233038 51 0 0.0 0.0 0.00 0.00 0.00 80 1020.4
20260905232515 51 0 0.0 0.0 0.00 0.00 0.00 80 1020.5
20260905232016 51 0 0.0 0.0 0.00 0.00 0.00 80 1020.5
20260905231534 51 0 0.0 0.0 0.00 0.00 0.00 80 1020.6
20260905231017 51 0 0.0 0.0 0.00 0.00 0.00 80 1020.6
20260905230519 51 0 0.0 0.0 0.00 0.00 0.00 79 1020.5
20260905230032 52 0 0.0 0.0 0.00 0.00 0.00 79 1020.4
20260905225516 52 0 0.0 0.0 0.00 0.00 0.00 78 1020.5
20260905225018 52 0 0.0 0.0 0.00 0.00 0.00 79 1020.6
20260905224534 52 0 0.0 0.0 0.00 0.00 0.00 78 1020.8
20260905224018 52 0 0.0 0.0 0.00 0.00 0.00 78 1020.7
20260905223518 52 0 0.0 0.0 0.00 0.00 0.00 78 1020.7
20260905223038 52 0 0.0 0.0 0.00 0.00 0.00 78 1020.8
20260905222517 52 0 0.0 0.0 0.00 0.00 0.00 77 1020.7
20260905222022 52 0 0.0 0.0 0.00 0.00 0.00 78 1020.8
20260905221544 52 0 0.0 0.0 0.00 0.00 0.00 78 1020.7
20260905221016 52 0 0.0 0.0 0.00 0.00 0.00 78 1020.7
20260905220516 52 0 0.0 0.0 0.00 0.00 0.00 78 1020.9
20260905220034 52 0 0.0 0.0 0.00 0.00 0.00 77 1021.0
20260905215522 52 0 0.0 0.0 0.00 0.00 0.00 78 1021.1
20260905215017 52 0 0.0 0.0 0.00 0.00 0.00 78 1021.0
20260905214535 52 0 0.0 0.0 0.00 0.00 0.00 78 1021.0
20260905214016 52 0 0.0 0.0 0.00 0.00 0.00 77 1020.9
20260905213516 52 0 0.0 0.0 0.00 0.00 0.00 77 1020.8
20260905213037 52 0 0.0 0.0 0.00 0.00 0.00 77 1020.8
20260905212516 52 0 0.0 0.0 0.00 0.00 0.00 77 1020.7
20260905212026 52 0 0.0 0.0 0.00 0.00 0.00 77 1020.9
20260905211543 52 0 0.0 0.0 0.00 0.00 0.00 77 1021.0
20260905211017 52 0 0.0 0.0 0.00 0.00 0.00 77 1021.0
20260905210518 52 0 0.0 0.0 0.00 0.00 0.00 77 1020.8
20260905210048 52 0 0.0 0.0 0.00 0.00 0.00 77 1020.9
20260905205517 53 0 0.0 0.0 0.00 0.00 0.00 76 1020.9
20260905205016 53 0 0.0 0.0 0.00 0.00 0.00 77 1020.9
20260905204535 53 0 0.0 0.0 0.00 0.00 0.00 76 1020.9
20260905204015 53 0 0.0 0.0 0.00 0.00 0.00 76 1020.9
20260905203517 53 0 0.0 0.0 0.00 0.00 0.00 76 1020.8
20260905203037 53 0 0.0 0.0 0.00 0.00 0.00 76 1020.9
20260905202518 53 0 0.0 0.0 0.00 0.00 0.00 75 1021.1
20260905202016 53 0 0.0 0.0 0.00 0.00 0.00 75 1021.0
20260905201537 53 0 0.0 0.0 0.00 0.00 0.00 75 1021.0
20260905201018 54 0 0.0 0.0 0.00 0.00 0.00 74 1021.1
20260905200518 54 0 0.0 0.0 0.00 0.00 0.00 74 1021.0
20260905200051 54 0 0.0 0.0 0.00 0.00 0.00 74 1020.8
20260905195518 54 0 0.0 0.0 0.00 0.00 0.00 74 1021.0
20260905195021 54 0 0.0 0.0 0.00 0.00 0.00 73 1020.9
20260905194537 55 0 0.0 0.0 0.00 0.00 0.00 73 1020.9
20260905194018 55 0 0.0 0.0 0.00 0.00 0.00 72 1020.9
20260905193518 56 0 0.0 0.0 0.00 0.00 0.00 72 1020.9
20260905193031 56 0 0.0 0.0 0.00 0.00 0.00 71 1020.9
20260905192516 56 0 0.0 0.0 0.00 0.00 0.00 71 1020.9
20260905192019 57 0 0.0 0.0 0.00 0.00 0.00 70 1020.8
20260905191536 57 0 0.0 0.0 0.00 0.00 0.00 70 1020.8
20260905191018 57 0 0.0 0.0 0.00 0.00 0.00 70 1020.7
20260905190517 57 0 0.0 0.0 0.00 0.00 0.00 70 1020.8
20260905190035 58 0 0.0 0.0 0.00 0.00 0.00 69 1020.8
20260905185516 58 0 0.0 0.0 0.00 0.00 0.00 68 1020.6
20260905185015 58 0 0.0 0.0 0.00 0.00 0.00 68 1020.5
20260905184536 58 0 0.0 7.0 0.00 0.00 0.00 68 1020.4
20260905184019 58 0 0.0 7.0 0.00 0.00 0.00 68 1020.3
20260905183519 58 0 0.0 4.0 0.00 0.00 0.00 67 1020.3